DW5450 Weather Reports


time (UTC)temp
F
wind
direction
speed
knots
gust
knots
rain 1hr
in
rain 24hr
in
rain mn
in
humidity
%
barometer
mb
20260502220027 84 118 2.6 9.6 0.00 0.00 0.00 56 1009.7
20260502214535 84 165 2.6 7.8 0.00 0.00 0.00 57 1009.8
20260502213028 84 138 4.3 9.6 0.00 0.00 0.00 58 1010.1
20260502211527 84 173 2.6 8.7 0.00 0.00 0.00 62 1010.2
20260502210029 84 159 3.5 7.8 0.00 0.00 0.00 62 1010.3
20260502204521 83 122 2.6 9.6 0.00 0.00 0.00 63 1010.5
20260502203020 83 109 4.3 11.3 0.00 0.00 0.00 63 1010.5
20260502201523 83 165 3.5 9.6 0.00 0.00 0.00 67 1010.6
20260502200019 83 190 3.5 11.3 0.00 0.00 0.00 66 1010.6
20260502194520 83 146 5.2 8.7 0.00 0.00 0.00 66 1010.8
20260502193018 83 167 4.3 12.2 0.00 0.00 0.00 63 1011.1
20260502191517 83 170 4.3 8.7 0.00 0.00 0.00 62 1011.3
20260502190022 83 155 4.3 8.7 0.00 0.00 0.00 63 1011.3
20260502184520 82 155 3.5 11.3 0.00 0.00 0.00 66 1011.4
20260502183015 83 190 4.3 9.6 0.00 0.00 0.00 67 1011.4
20260502181515 83 114 4.3 9.6 0.00 0.00 0.00 64 1011.5
20260502163009 82 123 0.9 7.0 0.00 0.00 0.00 63 1011.5
20260502161505 82 186 1.7 5.2 0.00 0.00 0.00 62 1011.5
20260502151559 76 319 0.0 1.7 0.00 0.00 0.00 69 1011.4
20260502123031 65 313 0.9 4.3 0.00 0.00 0.00 84 1009.6
20260502121532 65 306 1.7 5.2 0.00 0.00 0.00 85 1009.6
20260502114534 66 313 0.0 1.7 0.00 0.00 0.00 84 1009.3
20260502113028 66 310 0.0 1.7 0.00 0.00 0.00 83 1009.2
20260502111523 66 310 0.0 3.5 0.00 0.00 0.00 83 1009.1
20260502110022 66 298 0.9 2.6 0.00 0.00 0.00 83 1009.1
20260502104523 67 309 0.9 4.3 0.00 0.00 0.00 84 1009.0
20260502103020 66 307 0.9 3.5 0.00 0.00 0.00 85 1009.1
20260502101520 66 319 0.0 1.7 0.00 0.00 0.00 84 1009.1
20260502091513 68 319 0.9 1.7 0.00 0.00 0.00 85 1009.2
20260502070108 69 167 0.0 0.9 0.00 0.00 0.00 86 1010.4
20260502064620 69 167 0.0 0.0 0.00 0.00 0.00 85 1010.4
20260502063119 70 167 0.0 0.0 0.00 0.00 0.00 85 1010.6
20260502061555 70 167 0.0 0.0 0.00 0.00 0.00 85 1010.6
20260502060054 71 167 0.0 0.0 0.00 0.00 0.00 84 1010.8
20260502054554 71 167 0.0 0.0 0.00 0.00 0.00 84 1010.7
20260502053058 71 167 0.0 0.0 0.00 0.00 0.00 84 1010.6
20260502051550 72 167 0.0 0.0 0.00 0.00 0.00 83 1010.4
20260502050053 72 167 0.0 0.0 0.00 0.00 0.00 83 1010.3
20260502044547 73 167 0.0 0.0 0.00 0.00 0.00 82 1010.2
20260502043117 73 167 0.0 0.0 0.00 0.00 0.00 82 1010.0
20260502041558 74 167 0.0 0.0 0.00 0.00 0.00 81 1010.0
20260502040046 74 167 0.0 0.0 0.00 0.00 0.00 81 1009.8
20260502034545 74 167 0.0 0.0 0.00 0.00 0.00 80 1009.6
20260502033045 75 167 0.0 0.0 0.00 0.00 0.00 80 1009.6
20260502031545 75 167 0.0 0.0 0.00 0.00 0.00 79 1009.5
20260502030048 75 167 0.0 0.0 0.00 0.00 0.00 79 1009.2
20260502024542 76 167 0.0 0.0 0.00 0.00 0.00 78 1009.1
20260502023042 76 167 0.0 0.9 0.00 0.00 0.00 77 1008.9
20260502021541 77 167 0.0 0.9 0.00 0.00 0.00 76 1008.8
20260502020041 77 167 0.0 2.6 0.00 0.00 0.00 76 1008.6
20260502014541 77 159 0.0 3.5 0.00 0.00 0.00 75 1008.5
20260502013044 78 186 1.7 5.2 0.00 0.00 0.00 75 1008.4
20260502011539 78 175 0.9 4.3 0.00 0.00 0.00 74 1008.5
20260502010038 79 160 2.6 5.2 0.00 0.00 0.00 73 1008.5
20260502004543 79 167 0.9 6.1 0.00 0.00 0.00 72 1008.2
20260502003037 80 174 2.6 6.1 0.00 0.00 0.00 71 1008.1
20260502001537 80 154 4.3 7.8 0.00 0.00 0.00 71 1008.1
20260502000036 81 187 2.6 6.1 0.00 0.00 0.00 71 1008.1
20260501234536 81 195 1.7 7.0 0.00 0.00 0.00 71 1008.0
20260501233035 81 106 2.6 6.1 0.00 0.00 0.00 70 1008.2
20260501231534 81 153 2.6 7.8 0.00 0.00 0.00 70 1008.3
20260501230034 82 169 2.6 8.7 0.00 0.00 0.00 70 1008.3
20260501224533 82 129 3.5 9.6 0.00 0.00 0.00 69 1008.3
20260501223033 83 146 3.5 12.2 0.00 0.00 0.00 69 1008.4
20260501221534 84 151 3.5 8.7 0.00 0.00 0.00 67 1008.6